This demonstration page uses our WeatherBlox Daily Observations layout. Learn more.

Left ArrowRight Arrow

Hourly Observations for February 21, 2016

Temp ( °F °C ) Dew Point ( °F °C ) Humidity (%) Winds ( mph kmh ) Pressure ( in mb ) Visibility ( mi km ) Precip ( " mm )
12:15 am 00:15 Clear 37 3 34 1 87 87 NNE 7 11 29.97 1015 10 16 N/A
12:34 am 00:34 Clear 39 4 36 2 87 87 N 6 9 29.97 1015 10 16 N/A
12:54 am 00:54 Clear 41 5 34 1 76 76 N 7 11 29.97 1015 10 16 N/A
1:15 am 01:15 Partly Cloudy 41 5 34 1 76 76 N 7 11 29.97 1015 10 16 N/A
1:34 am 01:34 Mostly Cloudy 43 6 36 2 76 76 N 7 11 29.97 1015 10 16 N/A
1:54 am 01:54 Mostly Cloudy 43 6 37 3 81 81 NE 6 9 29.97 1015 10 16 N/A
2:15 am 02:15 Mostly Cloudy 43 6 36 2 76 76 ENE 3 6 30.00 1016 10 16 N/A
2:34 am 02:34 Cloudy 43 6 37 3 81 81 NE 3 6 30.00 1016 10 16 N/A
2:54 am 02:54 Cloudy 43 6 37 3 81 81 NNE 7 11 30.00 1016 10 16 N/A
3:15 am 03:15 Partly Cloudy 43 6 37 3 81 81 NNE 7 11 29.97 1015 10 16 N/A
3:34 am 03:34 Partly Cloudy 43 6 37 3 81 81 N 9 15 29.97 1015 10 16 N/A
3:54 am 03:54 Mostly Cloudy 45 7 37 3 76 76 N 8 13 30.00 1016 10 16 N/A
4:15 am 04:15 Cloudy 45 7 36 2 71 71 NNE 8 13 30.00 1016 10 16 N/A
4:34 am 04:34 Cloudy 43 6 36 2 76 76 NE 10 17 29.97 1015 10 16 N/A
4:55 am 04:55 Partly Cloudy 41 5 34 1 76 76 NNE 7 11 29.97 1015 10 16 N/A
5:14 am 05:14 Partly Cloudy 39 4 34 1 81 81 NNE 9 15 30.00 1016 10 16 N/A
5:34 am 05:34 Partly Cloudy 39 4 34 1 81 81 NNE 8 13 30.00 1016 10 16 N/A
5:55 am 05:55 Partly Cloudy 39 4 34 1 81 81 NNE 7 11 30.00 1016 10 16 N/A
6:14 am 06:14 Partly Cloudy 39 4 34 1 81 81 NE 9 15 30.00 1016 10 16 N/A
6:34 am 06:34 Clear 37 3 32 undefined 81 81 NNE 10 17 30.00 1016 10 16 N/A
6:55 am 06:55 Clear 37 3 32 undefined 81 81 NE 9 15 30.00 1016 10 16 N/A
7:14 am 07:14 Clear 37 3 32 undefined 81 81 NNE 6 9 30.00 1016 10 16 N/A
7:34 am 07:34 Sunny 36 2 32 undefined 87 87 NNE 8 13 30.03 1017 10 16 N/A
7:55 am 07:55 Sunny 36 2 32 undefined 87 87 N 9 15 30.03 1017 10 16 N/A
8:14 am 08:14 Sunny 37 3 32 undefined 81 81 N 10 17 30.03 1017 10 16 N/A
8:34 am 08:34 Sunny 37 3 32 undefined 81 81 NNE 8 13 30.03 1017 10 16 N/A
8:55 am 08:55 Sunny 39 4 34 1 81 81 NNE 8 13 30.03 1017 10 16 N/A
9:14 am 09:14 Sunny 41 5 34 1 76 76 NNE 10 17 30.03 1017 10 16 N/A
9:34 am 09:34 Sunny 43 6 34 1 71 71 NNE 13 20 30.03 1017 10 16 N/A
9:55 am 09:55 Partly Cloudy 46 8 34 1 62 62 NE 13 20 30.03 1017 10 16 N/A
10:14 am 10:14 Partly Cloudy 46 8 34 1 62 62 NE 10 17 30.03 1017 10 16 N/A
10:34 am 10:34 Partly Cloudy 48 9 34 1 58 58 NE 12 19 30.03 1017 10 16 N/A
10:54 am 10:54 Sunny 48 9 34 1 58 58 NNE 12 19 30.03 1017 10 16 N/A
11:14 am 11:14 Sunny 50 10 34 1 54 54 NE 9 15 30.03 1017 10 16 N/A
11:35 am 11:35 Sunny 50 10 34 1 54 54 NE 12 19 30.03 1017 10 16 N/A
11:54 am 11:54 Sunny 50 10 34 1 54 54 NNE 8 13 30.03 1017 10 16 N/A
12:14 pm 12:14 Sunny 52 11 34 1 50 50 NNE 8 13 30.03 1017 10 16 N/A
12:35 pm 12:35 Sunny 52 11 34 1 50 50 N 9 15 30.03 1017 10 16 N/A
12:54 pm 12:54 Sunny 54 12 34 1 47 47 NNE 7 11 30.00 1016 10 16 N/A
1:14 pm 13:14 Sunny 54 12 36 2 51 51 N 13 20 30.00 1016 10 16 N/A
1:35 pm 13:35 Sunny 54 12 36 2 51 51 NNE 10 17 30.00 1016 10 16 N/A
1:54 pm 13:54 Sunny 52 11 36 2 54 54 N 10 17 30.03 1017 10 16 N/A
2:14 pm 14:14 Sunny 54 12 36 2 51 51 N 10 17 30.00 1016 10 16 N/A
2:34 pm 14:34 Sunny 54 12 36 2 51 51 N 14 22 30.00 1016 10 16 N/A
2:54 pm 14:54 Sunny 54 12 36 2 51 51 N 13 20 30.00 1016 10 16 N/A
3:15 pm 15:15 Sunny 54 12 36 2 51 51 N 14 22 30.00 1016 10 16 N/A
3:34 pm 15:34 Sunny 54 12 36 2 51 51 N 14 22 30.00 1016 10 16 N/A
3:54 pm 15:54 Sunny 52 11 36 2 54 54 N 15 24 30.03 1017 10 16 N/A
4:15 pm 16:15 Partly Cloudy 52 11 36 2 54 54 N 14 22 30.03 1017 10 16 N/A
4:34 pm 16:34 Partly Cloudy 52 11 36 2 54 54 N 10 17 30.03 1017 10 16 N/A
4:54 pm 16:54 Partly Cloudy 50 10 36 2 58 58 N 14 22 30.06 1018 10 16 N/A
5:15 pm 17:15 Partly Cloudy 50 10 36 2 58 58 N 10 17 30.06 1018 10 16 N/A
5:34 pm 17:34 Partly Cloudy 48 9 36 2 62 62 N 10 17 30.06 1018 10 16 N/A
5:54 pm 17:54 Mostly Cloudy 48 9 36 2 62 62 N 10 17 30.06 1018 10 16 N/A
6:15 pm 18:15 Cloudy 46 8 36 2 66 66 N 12 19 30.09 1019 10 16 N/A
6:34 pm 18:34 Mostly Cloudy 45 7 36 2 71 71 N 10 17 30.09 1019 10 16 N/A
6:54 pm 18:54 Partly Cloudy 45 7 36 2 71 71 N 8 13 30.09 1019 10 16 N/A
7:15 pm 19:15 Mostly Cloudy 43 6 36 2 76 76 N 7 11 30.09 1019 10 16 N/A
7:34 pm 19:34 Mostly Cloudy 41 5 36 2 81 81 N 6 9 30.09 1019 10 16 N/A
7:54 pm 19:54 Mostly Cloudy 41 5 36 2 81 81 N 7 11 30.09 1019 10 16 N/A
8:15 pm 20:15 Partly Cloudy 39 4 34 1 81 81 N 7 11 30.12 1020 10 16 N/A
8:34 pm 20:34 Mostly Cloudy 39 4 36 2 87 87 N 7 11 30.12 1020 10 16 N/A
8:54 pm 20:54 Cloudy 41 5 36 2 81 81 N 7 11 30.12 1020 10 16 N/A
9:15 pm 21:15 Cloudy 41 5 36 2 81 81 N 7 11 30.12 1020 10 16 N/A
9:34 pm 21:34 Cloudy 41 5 36 2 81 81 N 7 11 30.12 1020 10 16 N/A
9:55 pm 21:55 Cloudy 39 4 36 2 87 87 N 6 9 30.12 1020 10 16 N/A
10:14 pm 22:14 Cloudy 39 4 34 1 81 81 N 7 11 30.12 1020 10 16 N/A
10:34 pm 22:34 Cloudy 39 4 36 2 87 87 N 8 13 30.15 1021 10 16 N/A
10:55 pm 22:55 Cloudy 41 5 36 2 81 81 N 8 13 30.15 1021 10 16 N/A
11:14 pm 23:14 Cloudy 41 5 36 2 81 81 N 12 19 30.15 1021 10 16 N/A
11:34 pm 23:34 Cloudy 41 5 36 2 81 81 N 10 17 30.15 1021 10 16 N/A
11:55 pm 23:55 Cloudy 39 4 36 2 87 87 N 9 15 30.15 1021 10 16 N/A

Powered by AerisWeather